EW7659 Weather Reports


time (UTC)temp
C
wind
direction
speed
KPH
gust
KPH
rain 1hr
cm
rain 24hr
cm
rain mn
cm
humidity
%
barometer
mb
20260506014945 9 34 1.6 14.5 0.00 0.10 0.03 75 1006.9
20260506014446 9 36 1.6 14.5 0.00 0.10 0.03 74 1007.0
20260506014207 9 32 1.6 17.7 0.00 0.10 0.03 74 1007.0
20260506013446 9 58 1.6 17.7 0.00 0.10 0.03 73 1006.8
20260506012945 9 38 1.6 24.1 0.00 0.10 0.03 73 1006.5
20260506012704 9 39 3.2 24.1 0.00 0.10 0.03 72 1006.3
20260506011949 9 49 1.6 16.1 0.00 0.10 0.03 72 1006.2
20260506011449 9 43 3.2 16.1 0.00 0.10 0.03 72 1006.4
20260506010950 9 49 3.2 16.1 0.00 0.10 0.03 72 1006.5
20260506010700 10 56 3.2 17.7 0.00 0.10 0.03 72 1006.2
20260506005943 10 55 1.6 17.7 0.00 0.10 0.03 72 1006.0
20260506005441 10 85 1.6 14.5 0.00 0.10 0.03 72 1006.0
20260506005203 10 47 3.2 17.7 0.00 0.10 0.03 73 1005.8
20260506004436 10 36 3.2 22.5 0.00 0.10 0.03 73 1005.7
20260506004205 10 5 1.6 22.5 0.00 0.10 0.03 74 1005.8
20260506003429 10 46 1.6 9.7 0.00 0.10 0.03 75 1005.7
20260506003146 10 39 1.6 9.7 0.00 0.10 0.03 75 1005.6
20260506002416 10 85 1.6 12.9 0.00 0.10 0.03 75 1005.6
20260506001915 10 5 1.6 12.9 0.00 0.10 0.03 75 1005.6
20260506001415 10 36 1.6 12.9 0.00 0.10 0.03 75 1005.9
20260506000913 10 32 0.0 12.9 0.00 0.10 0.03 75 1006.0
20260506000416 10 42 0.0 9.7 0.00 0.10 0.03 76 1005.8
20260506000135 10 37 1.6 9.7 0.00 0.10 0.03 76 1005.7
20260505235411 10 34 1.6 9.7 0.00 0.10 0.03 75 1005.9
20260505234913 10 17 0.0 11.3 0.00 0.10 0.03 75 1005.9
20260505234413 10 58 1.6 11.3 0.00 0.10 0.03 75 1005.8
20260505233908 10 81 1.6 9.7 0.00 0.10 0.03 75 1005.8
20260505233628 10 32 1.6 14.5 0.00 0.10 0.03 75 1005.8
20260505233143 10 38 1.6 14.5 0.00 0.10 0.03 75 1005.7
20260505232405 10 355 1.6 9.7 0.00 0.10 0.03 77 1005.6
20260505231905 10 317 1.6 16.1 0.00 0.10 0.03 77 1005.6
20260505231403 10 42 3.2 16.1 0.00 0.10 0.03 77 1005.5
20260505230902 10 5 1.6 17.7 0.00 0.10 0.03 77 1005.4
20260505230829 10 30 1.6 17.7 0.00 0.10 0.03 77 1005.4
20260505230825 10 41 1.6 14.5 0.00 0.10 0.03 77 1005.4
20260505225350 10 22 3.2 19.3 0.00 0.10 0.03 76 1005.3
20260505224851 10 44 3.2 22.5 0.00 0.10 0.03 75 1005.2
20260505224617 10 21 3.2 22.5 0.00 0.10 0.03 75 1005.2
20260505223849 10 24 3.2 17.7 0.00 0.10 0.03 74 1004.9
20260505223347 10 42 1.6 14.5 0.00 0.10 0.03 74 1005.0
20260505223108 10 38 1.6 14.5 0.00 0.10 0.03 74 1005.1
20260505222347 10 30 1.6 19.3 0.00 0.10 0.03 73 1005.1
20260505222105 10 32 3.2 27.4 0.00 0.10 0.03 73 1005.0
20260505221346 10 34 3.2 27.4 0.00 0.10 0.03 71 1004.7
20260505220841 10 48 3.2 20.9 0.00 0.10 0.03 70 1004.8
20260505220340 10 28 3.2 25.7 0.00 0.10 0.03 70 1004.8
20260505215839 10 33 3.2 25.7 0.00 0.10 0.03 70 1004.9
20260505215340 10 52 3.2 22.5 0.00 0.10 0.03 71 1005.0
20260505214839 10 42 3.2 25.7 0.00 0.10 0.03 71 1004.7
20260505214337 10 47 4.8 27.4 0.00 0.10 0.03 71 1004.6
20260505213838 10 64 3.2 27.4 0.00 0.10 0.03 71 1004.6
20260505213602 10 350 1.6 20.9 0.00 0.10 0.03 72 1004.5
20260505212832 10 50 3.2 20.9 0.00 0.10 0.03 72 1004.5
20260505212334 10 34 3.2 22.5 0.00 0.10 0.03 72 1004.6
20260505211831 10 74 3.2 22.5 0.00 0.10 0.03 72 1004.7
20260505211601 11 27 3.2 20.9 0.00 0.10 0.03 72 1004.8
20260505210835 11 24 1.6 25.7 0.00 0.10 0.03 73 1004.7
20260505210332 11 67 1.6 25.7 0.00 0.10 0.03 73 1004.5
20260505205834 11 44 3.2 22.5 0.00 0.10 0.03 72 1004.6
20260505205335 11 14 4.8 27.4 0.00 0.10 0.03 72 1004.5
20260505204834 11 45 4.8 27.4 0.00 0.10 0.03 71 1004.6
20260505204553 11 43 4.8 22.5 0.00 0.10 0.03 70 1004.7
20260505203832 11 34 3.2 22.5 0.00 0.10 0.03 70 1004.7
20260505203332 11 41 3.2 24.1 0.00 0.10 0.03 70 1004.8
20260505202832 11 28 1.6 24.1 0.00 0.10 0.03 70 1004.7
20260505202334 11 27 1.6 19.3 0.00 0.10 0.03 70 1004.5
20260505202052 11 321 1.6 16.1 0.00 0.10 0.03 70 1004.4
20260505201334 11 22 3.2 20.9 0.00 0.10 0.03 70 1004.5
20260505200832 11 32 3.2 20.9 0.00 0.10 0.03 69 1004.5
20260505200600 11 355 3.2 29.0 0.00 0.10 0.03 69 1004.5
20260505200051 11 63 3.2 29.0 0.00 0.10 0.03 69 1004.6
20260505195602 11 40 3.2 17.7 0.00 0.10 0.03 70 1004.4
20260505194832 11 30 1.6 17.7 0.00 0.10 0.03 70 1004.6
20260505194332 11 38 1.6 17.7 0.00 0.10 0.03 70 1004.7
20260505193832 11 35 3.2 19.3 0.00 0.10 0.03 69 1004.5
20260505193332 11 56 3.2 19.3 0.00 0.10 0.03 69 1004.4
20260505192833 11 36 4.8 24.1 0.00 0.10 0.03 69 1004.1
20260505192332 11 42 4.8 30.6 0.00 0.10 0.03 69 1004.1
20260505191833 11 21 3.2 30.6 0.00 0.10 0.03 70 1004.3
20260505191331 11 60 1.6 17.7 0.00 0.10 0.03 70 1004.1
20260505190832 11 64 1.6 16.1 0.00 0.10 0.03 70 1004.0
20260505190603 11 44 1.6 9.7 0.00 0.10 0.03 69 1004.0
20260505185832 11 27 1.6 17.7 0.00 0.10 0.03 70 1004.0
20260505185335 11 311 3.2 19.3 0.00 0.10 0.03 68 1004.0
20260505185058 11 34 3.2 20.9 0.00 0.10 0.03 70 1004.1
20260505184339 11 55 3.2 20.9 0.00 0.10 0.03 69 1004.0
20260505184050 11 342 3.2 24.1 0.00 0.10 0.03 70 1003.9
20260505183332 11 32 3.2 24.1 0.00 0.10 0.03 70 1003.7
20260505182832 11 26 3.2 16.1 0.00 0.10 0.03 71 1003.8
20260505182556 11 53 3.2 19.3 0.00 0.10 0.03 72 1003.8
20260505181828 11 48 4.8 32.2 0.00 0.10 0.03 70 1003.7
20260505181547 11 84 4.8 32.2 0.00 0.10 0.03 70 1003.5
20260505180829 11 51 4.8 30.6 0.00 0.10 0.03 69 1003.8
20260505180330 11 43 3.2 30.6 0.00 0.10 0.03 69 1003.7
20260505175828 12 31 3.2 20.9 0.00 0.10 0.03 70 1003.6
20260505175328 12 5 1.6 24.1 0.00 0.10 0.03 71 1003.7
20260505174831 12 43 3.2 24.1 0.00 0.10 0.03 71 1003.5
20260505174328 12 48 3.2 22.5 0.00 0.10 0.03 70 1003.5
20260505173828 12 11 3.2 22.5 0.00 0.10 0.03 71 1003.6
20260505173328 12 33 3.2 17.7 0.00 0.10 0.03 71 1003.4
20260505172827 12 5 3.2 17.7 0.00 0.10 0.03 71 1003.3
20260505172328 12 87 1.6 17.7 0.00 0.10 0.03 73 1003.2
20260505171827 12 0 1.6 16.1 0.00 0.10 0.03 73 1003.1
20260505171325 12 36 1.6 16.1 0.00 0.10 0.03 73 1003.1
20260505170826 12 62 1.6 14.5 0.00 0.10 0.03 72 1003.1
20260505170555 12 42 3.2 29.0 0.00 0.10 0.03 73 1002.9
20260505165826 12 355 3.2 29.0 0.00 0.10 0.03 74 1002.8
20260505165323 12 58 1.6 25.7 0.00 0.10 0.03 78 1002.8
20260505165311 11 22 3.2 19.3 0.00 0.10 0.03 79 1002.7
20260505165056 11 22 3.2 19.3 0.00 0.10 0.03 79 1002.7
20260505164324 11 78 3.2 20.9 0.00 0.10 0.03 79 1002.7
20260505163824 11 64 3.2 20.9 0.00 0.10 0.03 80 1002.5
20260505163324 11 91 3.2 17.7 0.00 0.10 0.03 81 1002.6
20260505162825 11 32 3.2 17.7 0.00 0.10 0.03 82 1002.5
20260505162322 11 51 3.2 19.3 0.00 0.10 0.03 82 1002.4
20260505162040 11 32 3.2 29.0 0.00 0.10 0.03 82 1002.3
20260505162024 11 355 3.2 20.9 0.00 0.10 0.03 82 1002.4
20260505160822 11 59 3.2 29.0 0.00 0.10 0.03 82 1002.1
20260505160321 11 76 3.2 19.3 0.00 0.10 0.03 83 1002.1
20260505153321 11 324 1.6 19.3 0.00 0.10 0.03 84 1002.2
20260505152818 11 38 1.6 19.3 0.00 0.10 0.03 85 1002.2
20260505152320 11 44 1.6 27.4 0.00 0.10 0.03 85 1002.0
20260505151817 11 53 3.2 27.4 0.00 0.10 0.03 85 1001.8
20260505151318 11 44 1.6 22.5 0.00 0.10 0.03 84 1001.8
20260505150816 11 57 1.6 17.7 0.00 0.10 0.03 84 1002.0
20260505150314 11 44 1.6 9.7 0.00 0.10 0.03 84 1002.2
20260505140309 12 57 1.6 20.9 0.00 0.10 0.03 85 1000.8
20260505130305 14 49 1.6 17.7 0.00 0.10 0.03 84 1000.2
20260505124804 15 45 3.2 16.1 0.00 0.10 0.03 84 999.9
20260505124303 15 58 1.6 16.1 0.00 0.10 0.03 84 999.9
20260505123757 15 48 1.6 12.9 0.00 0.10 0.03 84 999.9
20260505123518 15 34 1.6 20.9 0.00 0.10 0.03 84 999.9
20260505122744 15 61 1.6 20.9 0.00 0.10 0.03 83 999.8
20260505122246 15 55 1.6 17.7 0.00 0.10 0.03 83 999.5
20260505121745 15 59 1.6 17.7 0.00 0.10 0.03 83 999.4
20260505121245 16 58 1.6 17.7 0.00 0.10 0.03 83 999.4
20260505120745 16 42 0.0 17.7 0.00 0.10 0.03 85 999.3
20260505120241 16 34 0.0 0.0 0.00 0.10 0.03 86 999.1
20260505115740 16 34 0.0 1.6 0.00 0.10 0.03 85 999.2
20260505115235 16 58 0.0 1.6 0.00 0.10 0.03 86 999.0
20260505114735 16 55 0.0 1.6 0.00 0.10 0.03 86 998.8
20260505114456 16 49 0.0 1.6 0.03 0.10 0.03 86 998.9
20260505113733 16 49 0.0 1.6 0.03 0.10 0.03 86 998.8
20260505113233 16 50 0.0 1.6 0.03 0.10 0.03 86 998.7
20260505112736 16 44 0.0 3.2 0.03 0.10 0.03 87 998.8
20260505112458 16 62 1.6 9.7 0.03 0.10 0.03 87 998.6
20260505111732 16 44 1.6 9.7 0.03 0.10 0.03 87 998.7
20260505111232 16 31 0.0 6.4 0.03 0.10 0.03 87 998.7
20260505110731 16 44 0.0 0.0 0.03 0.10 0.03 87 998.6
20260505110232 16 58 0.0 0.0 0.03 0.10 0.03 86 998.5
20260505102204 17 44 0.0 8.0 0.00 0.08 0.00 80 998.1
20260505101705 18 134 0.0 6.4 0.00 0.08 0.00 79 997.9
20260505101205 18 144 0.0 6.4 0.00 0.08 0.00 79 997.2
20260505100705 18 147 0.0 12.9 0.00 0.08 0.00 79 997.0
20260505100205 18 137 1.6 12.9 0.00 0.08 0.00 79 997.0
20260505095704 18 142 1.6 12.9 0.00 0.08 0.00 80 997.0
20260505095204 17 176 1.6 14.5 0.00 0.08 0.00 81 997.0
20260505094704 17 156 1.6 14.5 0.00 0.08 0.00 81 997.0
20260505094204 17 129 0.0 11.3 0.00 0.08 0.00 81 997.3
20260505093704 17 161 0.0 12.9 0.00 0.08 0.00 81 997.4
20260505093204 17 142 1.6 12.9 0.00 0.08 0.00 81 997.4
20260505092923 17 133 0.0 8.0 0.00 0.08 0.00 80 997.3
20260505092911 17 141 0.0 8.0 0.00 0.08 0.00 80 997.4
20260505091704 17 140 0.0 6.4 0.00 0.08 0.00 80 997.4
20260505091204 17 165 0.0 6.4 0.00 0.08 0.00 79 997.5
20260505090704 17 124 0.0 6.4 0.00 0.08 0.00 78 997.5
20260505090201 17 92 0.0 6.4 0.00 0.08 0.00 78 997.5
20260505085916 17 141 0.0 1.6 0.00 0.08 0.00 77 997.4
20260505085149 17 142 0.0 6.4 0.00 0.08 0.00 77 997.4
20260505084642 17 142 0.0 6.4 0.00 0.08 0.00 76 997.4
20260505084143 17 125 0.0 1.6 0.00 0.08 0.00 76 997.4
20260505083859 17 126 0.0 3.2 0.00 0.08 0.00 77 997.4
20260505083406 17 142 0.0 3.2 0.00 0.08 0.00 77 997.3
20260505082642 17 123 0.0 0.0 0.00 0.08 0.00 78 997.3
20260505082402 17 123 0.0 4.8 0.00 0.08 0.00 78 997.2
20260505081641 17 123 0.0 6.4 0.00 0.08 0.00 78 997.1
20260505081138 17 126 0.0 6.4 0.00 0.08 0.00 78 997.1
20260505080637 17 111 0.0 4.8 0.00 0.08 0.00 78 997.1
20260505080135 17 150 0.0 0.0 0.00 0.08 0.00 78 997.2
20260505075633 17 150 0.0 0.0 0.00 0.08 0.00 78 997.0
20260505075354 17 150 0.0 1.6 0.00 0.08 0.00 77 997.1
20260505075115 17 152 0.0 4.8 0.00 0.08 0.00 78 997.2
20260505074354 17 153 1.6 6.4 0.00 0.08 0.00 78 997.2
20260505073633 17 131 0.0 6.4 0.00 0.08 0.00 78 997.2
20260505073132 17 132 0.0 12.9 0.00 0.08 0.00 78 997.2
20260505072855 17 128 0.0 12.9 0.00 0.08 0.00 78 997.4
20260505072132 17 128 0.0 12.9 0.00 0.08 0.00 78 997.6
20260505071646 17 119 1.6 12.9 0.00 0.08 0.00 78 997.9
20260505071403 17 142 1.6 8.0 0.00 0.08 0.00 78 997.9
20260505070632 17 107 1.6 6.4 0.00 0.08 0.00 79 997.8
20260505070118 17 106 0.0 11.3 0.00 0.08 0.00 78 998.0
20260505065613 17 94 0.0 4.8 0.00 0.08 0.00 78 998.1
20260505065113 17 121 0.0 6.4 0.00 0.08 0.00 78 998.3
20260505064610 17 126 0.0 8.0 0.00 0.08 0.00 77 998.3
20260505064110 17 139 0.0 8.0 0.00 0.08 0.00 76 998.2
20260505063616 18 164 0.0 4.8 0.00 0.08 0.00 75 998.7
20260505063116 18 138 0.0 4.8 0.00 0.08 0.00 74 998.4
20260505062610 18 153 0.0 3.2 0.00 0.08 0.00 73 998.5
20260505062111 18 154 1.6 11.3 0.00 0.08 0.00 71 998.6
20260505061608 19 157 1.6 11.3 0.00 0.08 0.00 69 999.0
20260505061109 18 126 1.6 11.3 0.00 0.08 0.00 68 998.7
20260505060608 18 71 0.0 9.7 0.00 0.08 0.00 72 998.7
20260505060109 18 67 0.0 6.4 0.00 0.08 0.00 72 999.0
20260505055828 18 67 1.6 25.7 0.00 0.08 0.00 71 999.2
20260505055106 18 61 1.6 25.7 0.00 0.08 0.00 70 998.9
20260505054607 18 46 0.0 0.0 0.00 0.08 0.00 72 999.5
20260505054107 18 46 0.0 6.4 0.00 0.08 0.00 72 999.8
20260505053606 18 46 0.0 6.4 0.00 0.08 0.00 71 1000.0
20260505053107 18 53 0.0 1.6 0.00 0.08 0.00 72 999.9
20260505053048 18 39 0.0 6.4 0.00 0.08 0.00 72 1000.0
20260505052105 18 21 0.0 6.4 0.00 0.08 0.00 75 1000.1
20260505051604 18 67 0.0 6.4 0.00 0.08 0.00 74 1000.1
20260505051102 18 316 1.6 8.0 0.00 0.08 0.00 76 1000.1
20260505050603 18 317 1.6 11.3 0.00 0.08 0.00 80 999.9
20260505041558 19 186 0.0 1.6 0.08 0.08 0.08 77 998.5
20260505041058 20 186 0.0 6.4 0.08 0.08 0.08 76 997.9
20260505040559 20 188 0.0 6.4 0.08 0.08 0.08 74 997.9
20260505040058 20 144 0.0 1.6 0.08 0.08 0.08 73 997.6
20260505035823 20 161 1.6 14.5 0.05 0.05 0.05 71 997.8
20260505035058 21 161 1.6 14.5 0.00 0.00 0.00 68 998.0
20260505034558 21 143 1.6 16.1 0.00 0.00 0.00 67 997.7
20260505034059 21 176 1.6 16.1 0.00 0.00 0.00 65 997.6
20260505033601 21 144 1.6 14.5 0.00 0.00 0.00 65 997.7
20260505033052 21 142 1.6 9.7 0.00 0.00 0.00 65 997.8
20260505032558 21 157 1.6 8.0 0.00 0.00 0.00 65 997.9
20260505032053 21 147 0.0 8.0 0.00 0.00 0.00 64 998.1
20260505031548 21 155 0.0 6.4 0.00 0.00 0.00 64 998.2
20260505031046 21 159 0.0 12.9 0.00 0.00 0.00 64 998.0
20260505030546 21 147 1.6 14.5 0.00 0.00 0.00 64 998.0
20260505030046 21 168 1.6 14.5 0.00 0.00 0.00 64 998.3
20260505025542 21 165 0.0 14.5 0.00 0.00 0.00 65 998.4
20260505025045 21 140 0.0 4.8 0.00 0.00 0.00 65 998.4
20260505024542 21 165 0.0 4.8 0.00 0.00 0.00 65 998.5
20260505024309 21 160 0.0 6.4 0.00 0.00 0.00 65 998.5
20260505023539 21 171 1.6 9.7 0.00 0.00 0.00 65 998.3
20260505023037 21 178 1.6 9.7 0.00 0.00 0.00 66 998.0
20260505022802 22 173 0.0 9.7 0.00 0.00 0.00 65 998.1
20260505022037 22 189 1.6 8.0 0.00 0.00 0.00 66 998.1
20260505021536 22 163 1.6 8.0 0.00 0.00 0.00 65 998.0
20260505021044 22 178 0.0 8.0 0.00 0.00 0.00 64 997.9
20260505021036 22 177 0.0 8.0 0.00 0.00 0.00 65 997.9
20260505020034 22 171 0.0 11.3 0.00 0.00 0.00 64 998.1
20260505015532 22 172 0.0 11.3 0.00 0.00 0.00 64 998.0